Regional Weather Roundup
Issued by NWS

Home | Current Version | Previous Version | Text Only | Print | Product List | Glossary On
Versions: 1 2 3 4 5 6 7 8 9 10 11 12 13 14 15 16 17 18 19 20 21 22 23 24 25 26 27 28 29 30 31 32 33 34 35 36 37 38 39 40 41 42 43 44 45 46 47 48 49 50
000
ASUS44 KOUN 291610
RWROK

WEATHER ROUNDUP FOR OKLAHOMA
NATIONAL WEATHER SERVICE NORMAN OK
1100 AM CDT WED JUL 29 2015

NOTE: "FAIR" INDICATES FEW OR NO CLOUDS BELOW 12,000 FEET WITH NO
      SIGNIFICANT WEATHER AND/OR OBSTRUCTIONS TO VISIBILITY.

OKZ001>007-009>012-014-015-017-291700-
NORTHWEST OKLAHOMA AND THE PANHANDLE

CITY           SKY/WX    TMP DP  RH WIND       PRES   REMARKS
GAGE           MOSUNNY   80  65  59 NE18G24   30.14F
GUYMON         MOSUNNY   73  54  51 NE8       30.24F
ENID/WOODRING  MOSUNNY   88  70  55 NE14G21   30.06S HX  92
$$

OKZ016-021>023-033>039-044-045-291700-
SOUTHWEST OKLAHOMA

CITY           SKY/WX    TMP DP  RH WIND       PRES   REMARKS
LAWTON/REGL    SUNNY     89  67  47 VRB5      30.05R HX  92
LAWTON/FT SILL SUNNY     88  71  57 CALM      30.04R HX  94
FREDERICK      SUNNY     90  68  48 W5        30.02S HX  94
CLINTON        SUNNY     86  70  58 N10       30.11R HX  90
HOBART         SUNNY     90  68  48 E7        30.08R HX  94
ALTUS AFB      SUNNY     89  66  46 NE8       30.06R HX  91
$$

OKZ018>020-024>031-291700-
CENTRAL OKLAHOMA

CITY           SKY/WX    TMP DP  RH WIND       PRES   REMARKS
OKLAHOMA CITY  MOSUNNY   87  71  58 CALM      30.06S HX  93
OKC/WILEY POST SUNNY     87  69  54 VRB3      30.06S HX  91
OKC/TINKER AFB SUNNY     87  70  57 SW3       30.06S HX  91
STILLWATER     SUNNY     89  70  53 NE9       30.07R HX  94
GUTHRIE        SUNNY     88  69  53 CALM      30.06S HX  92
$$

OKZ008-013-054>072-291700-
NORTHEAST OKLAHOMA

CITY           SKY/WX    TMP DP  RH WIND       PRES   REMARKS
TULSA          MOSUNNY   89  72  56 NE7       30.07S HX  96
TULSA/JONES    MOSUNNY   91  71  51 VRB5      30.07R HX  97
PONCA CITY     SUNNY     88  72  58 E16       30.08R HX  94
BARTLESVILLE   SUNNY     88  75  65 VRB7      30.09S HX  97
MUSKOGEE       SUNNY     89  74  60 CALM      30.08R HX  98
$$

OKZ032-040>043-046>053-073>077-291700-
SOUTH CENTRAL/SOUTHEAST OKLAHOMA

CITY           SKY/WX    TMP DP  RH WIND       PRES   REMARKS
ARDMORE/DWNTWN SUNNY     90  68  48 SW6       30.05S HX  93
MCALESTER      SUNNY     91  72  53 SW5       30.07R HX  98
$$




USA.gov is the U.S. government's official web portal to all federal, state and local government web resources and services.